Hauptseite
METAR-TAF:

METAR-TAF

Flughäfen :

Montichiari

Brescia, Italien

Breite: 45-24-02N, Länge: 010-18-59E, Höhe: 104 m

Beobachtung

Neuester Wetterbericht von vor 2 Stunden und 4 Minuten, um 01:50 UTC
Wind 5 kt aus Ost/Nordost
Temperatur 20°C
Luftfeuchtigkeit 83%
Luftdruck 1019 hPa
Sichtweite 10 km oder mehr
keine Wolken unter 1500 m und keine Kumulonimbus oder Gewitterwolken

METAR: LIPO 190150Z 06005KT CAVOK 20/17 Q1019

Zeit: 05:54 (03:54 UTC)

Prognose

Neuester Wetterbericht von vor 4 Stunden und 54 Minuten, um 23:00 UTC
Gültige Prognose vom 19 um 00 UTC bis 19 um 24 UTC
Wind 5 kt aus unterschiedlichen Richtungen
Sichtweite 10 km oder mehr
keine Wolken unter 1500 m und keine Kumulonimbus oder Gewitterwolken
Zeitweise
vom 19 um 03 UTC bis 19 um 08 UTC
Sichtweite: 3500 m
feuchter Dunst

TAF: LIPO 182300Z 1900/1924 VRB05KT CAVOK TEMPO 1903/1908 3500 BR

Wetterbeobachtungen und Prognosen von mehr als 4000 Flughäfen (METAR und TAF Bericht).

Die verfügbaren Stationen werden durch gelbe und rote Markierungen auf der Karte dargestellt.

Führen Sie die Maus auf sie, um den Namen der Station zu sehen.

Darauf klicken, um die Beobachtung von Wetterbeobachtungen und Prognosen zu sehen.

Um die Karte zu ändern : klicken Sie auf den grünen Tasten mit einem schwarzen Kreuz Zum Vergrößern, auf den grünen Button mit einem Gedankenstrich zu verkleinern, oder auf die grünen Pfeile für benachbarte Karten.


METAR-TAF: